Probability
0 0 0 0 0 0 0 0 0 0 0 0 0 0 0 0 0 0 0 0 0 0 0 0 0 0 0 0 0 0 0 0 0 0 0 0 0 0 0 0 0 0 0 0 0 0 0 0 0
0 0 0 0 0 0 0 0 0 0 0 0 0 0 0 0 0 0 0 0 0 0 0 0 0 0 0 0 0 0 0 0 0 0 0 0 0 0 0 0 0 0 0 0 0 0 0 0 0
0 0 0 0 0 0 0 0 0 0 0 0 0 0 0 0 0 0 0 0 0 0 0 0 0 0 0 0 0 0 0 0 0 0 0 0 0 0 0 0 0 0 0 0 0 0 0 0 0
0 0 0 0 0 0 0 0 0 0 0 0 0 0 0 0 0 0 0 0 0 0 0 0 0 0 0 0 0 0 0 0 0 0 0 0 0 0 0 0 0 0 0 0 0 0 0 0 0
0 0 0 0 0 0 0 0 0 0 0 0 0 0 0 0 0 0 0 0 0 0 0 0 0 0 0 0 0 0 0 0 0 0 0 0 0 0 0 0 0 0 0 0 0 0 0 0 0
0 0 0 0 0 0 0 0 0 0 0 0 0 0 0 0 0 0 0 0 0 0 0 0 0 0 0 0 0 0 0 0 0 0 0 0 0 0 0 0 0 0 0 0 0 0 0 0 0
0 0 0 0 0 0 0 0 0 0 0 0 0 0 0 0 0 0 0 0 0 0 0 0 0 0 0 0 0 0 0 0 0 0 0 0 0 0 0 0 0 0 0 0 0 0 0 0 0
0 0 0 0 0 0 0 0 0 0 0 0 0 0 0 0 0 0 0 0 0 0 0 0 0 0 0 0 0 0 0 0 0 0 0 0 0 0 0 0 0 0 0 0 0 0 0 0 0
0 0 0 0 0 0 0 0 0 0 0 0 0 0 0 0 0 0 0 0 0 0 0 0 0 0 0 0 0 0 0 0 0 0 0 0 0 0 0 0 0 0 0 0 0 0 0 0 0
0 0 0 0 0 0 0 0 0 0 0 0 0 0 0 0 0 0 0 0 0 0 0 0 0 0 0 0 0 0 0 0 0 0 0 0 0 0 0 0 0 0 0 0 0 0 0 0 0
0 0 0 0 0 0 0 0 0 0 0 0 0 0 0 0 0 0 0 0 0 0 0 0 0 0 0 0 0 0 0 0 0 0 0 0 0 0 0 0 0 0 0 0 0 0 0 0 0
0 0 0 0 0 0 0 0 0 0 0 0 0 0 0 0 0 0 0 0 0 0 0 0 0 0 0 0 0 0 0 0 0 0 0 0 0 0 0 0 0 0 0 0 0 0 0 0 0
0 0 0 0 0 0 0 0 0 0 0 0 0 0 0 0 0 0 0 0 0 0 0 0 0 0 0 0 0 0 0 0 0 0 0 0 0 0 0 0 0 0 0 0 0 0 0 0 0
0 0 0 0 0 0 0 0 0 0 0 0 0 0 0 0 0 0 0 0 0 0 0 0 0 0 0 0 0 0 0 0 0 0 0 0 0 0 0 0 0 0 0 0 0 0 0 0 0
0 0 0 0 0 0 0 0 0 0 0 0 0 0 0 0 0 0 0 0 0 0 0 0 0 0 0 0 0 0 0 0 0 0 0 0 0 0 0 0 0 0 0 0 0 0 0 0 0
0 0 0 0 0 0 0 0 0 0 0 0 0 0 0 0 0 0 0 0 0 0 0 0 0 0 0 0 0 0 0 0 0 0 0 0 0 0 0 0 0 0 0 0 0 0 0 0 0
0 0 0 0 0 0 0 0 0 0 0 0 0 0 0 0 0 0 0 0 0 0 0 0 0 0 0 0 0 0 0 0 0 0 0 0 0 0 0 0 0 0 0 0 0 0 0 0 0
0 0 0 0 0 0 0 0 0 0 0 0 0 0 0 0 0 0 0 0 0 0 0 0 0 0 0 0 0 0 0 0 0 0 0 0 0 0 0 0 0 0 0 0 0 0 0 0 0
0 0 0 0 0 0 0 0 0 0 0 0 0 0 0 0 0 0 0 0 0 0 0 0 0 0 0 0 0 0 0 0 0 0 0 0 0 0 0 0 0 0 0 0 0 0 0 0 0
0 0 0 0 0 0 0 0 0 0 0 0 0 0 0 0 0 0 0 0 0 0 0 0 0 0 0 0 0 0 0 0 0 0 0 0 0 0 0 0 0 0 0 0 0 0 0 0 0
0 0 0 0 0 0 0 0 0 0 0 0 0 0 0 0 0 0 0 0 0 0 0 0 0 0 0 0 0 0 0 0 0 0 0 0 0 0 0 0 0 0 0 0 0 0 0 0 0
0 0 0 0 0 0 0 0 0 0 0 0 0 0 0 0 0 0 0 0 0 0 0 0 0 0 0 0 0 0 0 0 0 0 0 0 0 0 0 0 0 0 0 0 0 0 0 0 0
0 0 0 0 0 0 0 0 0 0 0 0 0 0 0 0 0 0 0 0 0 0 0 0 0 0 0 0 0 0 0 0 0 0 0 0 0 0 0 0 0 0 0 0 0 0 0 0 0
0 0 0 0 0 0 0 0 0 0 0 0 0 0 0 0 0 0 0 0 0 0 0 0 0 0 0 0 0 0 0 0 0 0 0 0 0 0 0 0 0 0 0 0 0 0 0 0 0
0 0 0 0 0 0 0 0 0 0 0 0 0 0 0 0 0 0 0 0 0 0 0 0 0 0 0 0 0 0 0 0 0 0 0 0 0 0 0 0 0 0 0 0 0 0 0 0 0
0 0 0 0 0 0 0 0 0 0 0 0 0 0 0 0 0 0 0 0 0 0 0 0 0 0 0 0 0 0 0 0 0 0 0 0 0 0 0 0 0 0 0 0 0 0 0 0 0
0 0 0 0 0 0 0 0 0 0 0 0 0 0 0 0 0 0 0 0 0 0 0 0 0 0 0 0 0 0 0 0 0 0 0 0 0 0 0 0 0 0 0 0 0 0 0 0 0
0 0 0 0 0 0 0 0 0 0 0 0 0 0 0 0 0 0 0 0 0 0 0 0 0 0 0 0 0 0 0 0 0 0 0 0 0 0 0 0 0 0 0 0 0 0 0 0 0
0 0 0 0 0 0 0 0 0 0 0 0 0 0 0 0 0 0 0 0 0 0 0 0 0 0 0 0 0 0 0 0 0 0 0 0 0 0 0 0 0 0 0 0 0 0 0 0 0
0 0 0 0 0 0 0 0 0 0 0 0 0 0 0 0 0 0 0 0 0 0 0 0 0 0 0 0 0 0 0 0 0 0 0 0 0 0 0 0 0 0 0 0 0 0 0 0 0
Wind_Speed
9 7 5 3 3 3 6 5 5 5 5 6 6 5 7 9 6 8 6 11 14 12 12 10 9 10 12 12 12 12 12 13 13 14 14 14 14 14 15 16 18 19 20 20 20 20 20 19 19
7 5 4 3 4 0 6 6 6 6 7 5 3 1 1 7 7 9 7 10 13 13 12 11 11 12 12 12 12 12 12 13 13 14 14 14 14 14 15 17 18 19 19 19 19 19 19 19 18
6 5 4 4 2 5 6 6 9 8 6 3 3 2 5 7 9 7 7 11 11 11 11 12 12 13 13 13 12 12 12 13 14 14 14 14 15 15 16 17 18 18 19 19 19 19 18 18 17
4 4 4 4 3 7 5 7 11 8 4 1 1 5 5 5 5 8 9 9 10 10 12 12 13 13 13 13 13 12 13 13 14 14 14 15 15 16 17 18 18 18 18 18 18 18 18 17 17
3 3 4 3 3 5 4 6 9 7 7 5 2 3 7 4 7 9 8 9 9 10 12 12 12 12 13 13 13 13 13 13 14 14 15 15 15 16 17 17 17 18 18 18 18 18 17 17 17
3 3 4 2 6 5 4 3 5 5 5 6 2 2 6 7 7 7 7 8 8 9 11 10 11 12 12 12 12 12 12 13 14 15 15 15 15 16 17 17 17 17 18 18 18 18 17 17 17
3 3 5 4 4 5 6 4 4 4 5 6 2 3 7 7 7 7 7 7 8 9 10 9 8 10 10 11 11 11 12 12 13 14 14 13 14 15 16 16 17 17 18 18 18 18 17 18 18
3 3 5 4 1 4 7 5 1 1 4 4 1 0 6 9 9 7 6 5 8 8 8 9 9 8 8 8 11 11 12 12 12 13 13 13 13 14 13 13 16 17 17 18 18 17 17 17 16
3 3 5 3 1 3 9 5 3 4 4 3 1 4 4 15 11 8 5 5 6 7 7 8 9 8 8 9 10 11 11 12 13 11 14 12 8 8 8 11 15 17 17 17 17 17 16 14 13
2 3 6 3 4 4 7 5 7 3 4 5 4 5 5 12 10 10 9 8 8 8 7 7 8 8 8 8 8 7 8 9 8 8 9 6 6 7 9 11 13 15 15 16 16 15 12 8 5
4 4 3 5 7 4 4 4 6 5 6 8 10 12 9 11 10 11 11 10 9 9 8 7 7 7 7 6 7 5 5 6 7 9 8 6 7 7 7 5 7 8 9 7 8 6 4 5 4
3 1 4 4 3 2 1 2 3 6 2 5 4 14 12 12 13 13 12 11 9 9 10 8 7 7 6 6 6 5 5 5 5 8 8 6 6 6 6 5 6 5 4 4 4 4 6 6 6
5 1 2 4 2 1 3 3 3 6 6 6 5 9 11 12 11 10 9 9 10 10 10 10 8 8 6 5 4 5 5 6 7 7 7 8 7 7 7 6 5 5 4 4 5 5 6 6 6
1 2 3 3 3 2 2 5 4 7 6 8 8 8 10 11 11 10 10 10 11 11 11 11 10 9 7 6 5 4 5 5 6 6 8 9 7 7 7 6 6 5 5 5 5 6 6 5 5
1 1 4 5 5 3 1 6 8 9 5 6 8 9 10 11 11 11 12 12 11 10 10 10 11 9 9 8 7 5 4 5 5 6 8 9 8 9 8 7 6 5 6 7 6 6 6 6 6
3 3 4 6 6 4 2 7 6 5 8 7 7 9 10 11 12 11 11 11 10 9 10 10 9 10 9 8 7 5 5 5 5 5 6 9 9 9 8 7 7 7 7 7 7 6 6 6 6
5 5 6 5 6 5 6 7 1 3 4 6 8 8 9 10 11 11 11 11 11 11 11 11 10 10 9 8 6 5 5 5 5 5 5 7 9 10 9 8 8 9 7 7 8 7 7 7 7
4 6 7 6 6 5 6 9 8 4 7 8 8 8 8 9 11 11 12 12 11 10 11 11 11 10 8 6 5 4 5 5 4 5 6 8 8 10 9 8 10 10 8 7 7 8 6 6 7
4 5 4 2 4 2 7 10 10 9 8 9 10 9 9 10 10 10 12 13 11 10 11 12 12 12 9 7 7 7 6 5 4 4 6 8 9 10 10 9 10 10 10 11 11 9 10 7 7
2 4 6 2 3 1 6 12 11 11 12 11 11 10 10 10 9 10 11 12 14 13 12 11 12 13 12 10 8 5 5 5 5 4 5 7 9 11 10 12 11 11 10 11 11 12 7 6 7
4 6 7 5 2 4 4 10 11 12 16 13 10 9 9 10 10 8 9 12 13 13 14 12 12 12 12 10 6 4 4 3 5 7 7 8 9 11 11 13 12 13 12 13 14 16 12 10 8
6 5 5 4 4 4 4 7 6 7 6 8 8 8 10 11 10 8 8 10 12 13 11 11 10 10 11 11 10 10 10 11 11 7 7 8 9 11 12 13 13 14 12 14 15 16 10 13 11
2 4 2 1 3 5 4 6 8 7 8 8 9 10 11 10 8 7 7 9 9 10 10 10 10 10 10 11 11 11 10 8 5 5 8 9 9 10 11 13 13 14 12 14 15 14 11 11 11
8 4 3 1 2 6 7 8 9 7 9 8 8 7 5 3 1 1 2 3 4 7 8 8 9 9 9 10 11 11 11 8 7 8 8 8 6 7 10 11 12 13 12 13 14 15 15 12 11
5 5 2 3 4 9 7 9 10 7 4 2 1 2 3 2 2 1 2 2 3 5 7 7 8 8 9 9 10 10 10 9 10 8 8 8 7 7 11 11 12 11 11 12 13 14 14 13 12
9 9 9 8 6 5 3 11 9 1 2 2 1 4 5 4 2 3 3 4 5 6 7 7 8 8 8 9 9 8 9 7 7 8 7 9 8 8 9 11 12 12 12 13 13 11 12 10 11
8 9 6 3 2 4 8 8 5 4 3 4 6 5 5 3 2 2 3 4 5 6 7 7 7 7 8 8 8 8 9 9 8 8 8 7 7 8 10 12 12 12 13 13 13 11 13 11 11
2 4 4 6 6 7 10 10 7 5 9 8 5 3 3 2 2 1 2 2 2 3 4 5 7 7 7 7 7 7 8 9 8 7 8 8 8 9 11 12 12 12 12 13 12 10 11 12 11
6 4 6 6 6 7 7 11 4 3 5 5 2 2 3 3 2 2 1 1 2 2 3 4 5 6 7 7 7 8 7 8 8 9 9 8 7 9 11 12 12 12 13 12 12 12 13 14 11
9 11 9 6 7 4 5 14 3 4 6 5 3 2 2 2 2 2 1 1 2 3 4 5 6 7 7 7 7 8 8 8 9 10 9 8 9 9 10 10 11 12 12 12 13 14 14 15 15
Wind_Direction
294 267 260 265 255 230 91 94 101 92 84 46 41 12 20 41 40 104 135 136 132 135 135 142 139 132 123 114 107 100 97 95 93 91 89 89 88 88 88 88 89 88 86 85 83 81 80 79 78
293 285 261 244 257 170 105 115 114 85 83 88 76 337 53 80 82 109 131 132 135 137 140 143 138 134 128 120 112 106 101 98 96 94 93 93 92 91 89 89 89 89 88 87 85 83 82 81 79
271 262 259 251 293 30 86 116 107 87 91 120 132 354 26 92 111 126 130 136 134 133 131 133 140 137 132 126 120 113 107 103 100 98 97 96 95 93 90 90 90 90 90 89 87 86 84 81 78
267 238 245 264 51 54 56 107 112 116 109 32 137 123 79 56 89 116 134 140 133 130 126 136 141 140 137 132 127 121 114 109 105 103 101 99 97 95 93 92 91 91 91 90 89 87 85 82 77
231 260 250 262 86 82 61 89 125 144 158 164 223 121 110 81 83 120 149 143 135 129 126 140 141 142 141 139 135 129 121 114 110 108 106 104 102 99 97 96 95 94 94 93 91 89 86 82 76
253 263 270 242 107 111 111 112 149 159 132 124 192 137 105 131 139 149 155 145 136 126 127 137 138 142 144 143 140 134 126 121 117 114 112 110 108 105 103 101 100 99 98 96 94 91 88 83 77
263 269 284 309 103 132 123 142 175 158 144 148 182 135 120 152 151 149 150 151 138 129 131 141 147 147 145 145 144 139 133 128 123 119 114 110 109 107 106 106 106 105 102 100 97 94 89 84 78
299 276 268 277 255 124 130 143 152 166 110 79 15 254 141 156 140 144 151 158 137 134 143 153 158 157 155 151 150 145 140 134 125 119 112 107 106 105 105 106 110 109 107 104 101 97 91 84 75
288 272 268 262 268 113 133 147 108 25 93 116 98 49 79 131 136 144 156 169 148 151 160 162 163 164 163 162 158 150 145 139 131 127 127 125 122 116 108 111 114 114 112 109 106 102 95 83 69
223 239 257 346 35 73 140 166 145 165 184 171 154 113 112 133 151 165 174 181 174 172 176 170 168 168 167 165 156 161 157 153 151 149 155 152 136 120 113 108 112 114 115 115 115 113 106 90 67
226 241 280 57 48 31 140 191 160 185 210 202 185 163 161 159 172 182 187 188 185 181 180 177 172 168 165 157 162 167 163 166 165 166 177 140 120 122 121 117 111 117 124 120 124 105 78 69 63
275 352 20 62 55 6 156 194 194 214 213 57 72 154 163 175 188 193 192 191 186 186 184 182 175 170 172 167 170 167 165 171 171 174 174 146 143 144 146 147 152 160 141 136 109 93 87 80 72
252 105 65 78 122 349 351 261 236 240 214 121 92 129 169 185 195 200 195 191 188 191 185 181 179 177 177 177 176 174 173 174 176 175 173 160 157 158 156 160 161 159 140 133 121 112 106 97 86
330 124 147 161 164 157 247 262 233 247 223 154 151 170 188 192 196 194 198 198 196 193 188 180 181 183 181 183 184 183 178 175 174 175 177 170 165 163 161 160 161 153 146 136 129 127 116 103 97
318 200 201 197 194 164 242 268 233 229 205 181 185 196 205 202 196 199 200 201 198 192 187 181 181 184 187 189 189 189 186 180 177 176 181 178 171 168 164 161 161 155 142 134 128 124 115 114 107
210 225 233 193 173 143 194 265 260 207 175 203 219 214 208 207 200 201 202 199 198 189 189 186 179 185 191 191 190 188 188 186 184 179 181 182 176 169 164 163 164 153 144 142 140 139 131 124 118
201 230 231 170 175 162 205 258 251 90 161 228 242 238 221 208 202 201 200 197 195 192 187 187 182 185 189 189 189 190 189 191 185 180 182 183 178 173 167 168 163 155 151 151 153 147 143 137 126
202 219 233 203 163 184 226 257 272 206 199 224 238 241 233 222 212 200 196 197 193 193 187 187 184 184 184 181 187 192 195 195 190 185 184 183 180 176 170 166 163 160 157 157 157 150 141 137 133
346 326 294 72 108 195 249 262 263 258 231 228 231 234 236 233 222 204 193 188 186 188 189 187 187 185 183 186 190 193 200 194 195 192 185 184 182 179 174 167 166 169 169 169 162 151 143 143 135
269 293 299 318 111 187 273 273 266 252 249 237 236 235 234 239 233 214 194 181 184 189 192 193 192 188 189 195 191 186 181 192 194 186 192 190 184 181 178 174 175 176 171 167 163 154 147 162 169
229 236 255 272 187 213 266 284 251 241 233 234 232 240 247 244 239 226 198 185 183 189 193 198 197 193 191 185 174 169 170 168 187 196 200 199 190 185 182 180 178 180 176 176 173 170 164 172 192
239 231 231 287 320 284 224 287 287 285 253 219 228 239 248 249 244 234 209 193 189 192 188 192 195 195 191 184 185 184 192 199 202 195 193 191 193 191 187 184 182 184 183 181 180 182 178 170 181
160 54 91 211 252 279 244 261 267 250 255 233 224 228 238 239 235 230 213 197 190 181 180 185 191 196 193 190 192 195 205 208 194 186 186 191 196 197 192 188 186 188 189 186 185 185 183 181 183
123 99 86 129 218 257 206 226 264 219 229 231 220 223 242 255 291 35 96 130 150 162 172 178 188 196 194 194 195 200 205 203 201 196 191 191 193 199 199 193 192 193 193 190 189 189 191 192 190
149 145 167 222 222 247 193 218 248 207 205 183 152 305 335 3 25 49 104 139 162 168 176 181 188 198 195 197 201 202 204 204 211 206 194 187 189 200 204 199 199 197 196 192 189 191 196 194 192
195 186 176 194 220 262 210 232 252 199 125 122 234 262 277 283 267 230 211 199 198 193 185 185 196 203 198 200 204 203 202 207 216 212 198 195 197 199 195 201 204 200 196 195 193 194 197 196 196
174 219 217 225 268 292 261 260 270 163 197 237 251 268 279 281 267 239 230 217 203 194 193 193 198 205 204 202 202 206 205 209 215 214 204 196 193 187 189 197 204 203 199 197 194 196 196 195 196
211 179 158 188 201 238 261 253 241 205 224 239 263 290 325 359 348 287 256 235 202 184 185 191 200 206 207 205 206 210 211 212 214 214 212 202 191 182 183 191 201 204 202 199 196 194 194 194 195
180 206 193 190 187 189 255 260 188 146 160 164 162 66 31 10 349 333 334 100 129 135 167 197 207 210 209 209 210 212 215 215 214 218 216 204 193 185 186 189 195 201 202 200 199 196 191 192 190
204 203 195 193 226 217 237 263 138 80 90 98 73 18 348 330 329 330 320 165 173 198 208 212 213 216 214 208 211 216 216 217 221 223 216 203 198 191 187 187 194 200 201 200 200 197 192 192 189